Zurück zum Katalog

STARLINK-3578

AktivKommunikationVLEO
NORAD 51868·PAYLOAD·🇺🇸 United States

Gestartet Mar 3, 2022 von Cape Canaveral Space Force Station

Loading…

Nächste Überflüge (nächste 24 Stunden)

TLE

AktuellSource: CelesTrak SupGP

Epoche: Sep 14, 2026, 22:00 UTC

1 51868C 22022S   26257.91715278  .00009856  00000+0  28190-3 0  2575
2 51868  53.1593 229.5202 0001369  91.8710 280.4409 15.35402196    17

Verfolge STARLINK-3578 in Echtzeit mit AllMySat

Download on the App Store